Zurück zum Katalog

COSMOS 839 DEB

AktivUNKNOWN
NORAD 10416·DEBRIS·🇷🇺 Russia

Gestartet Jul 8, 1976 von Plesetsk Cosmodrome

Loading…

Nächste Überflüge (nächste 24 Stunden)

TLE

AktuellSource: Space-Track

Epoche: Sep 14, 2026, 10:45 UTC

1 10416U 76067K   26257.44842205 -.00000039  00000-0  66129-4 0  9990
2 10416  65.7182  45.2968 0644154  70.4880 327.2429 12.20407277236763

Verfolge COSMOS 839 DEB in Echtzeit mit AllMySat

Download on the App Store